timestamp,wind_dir_avg,wind_spd_max_dir,wind_spd_avg,wind_spd_gust,battery_voltage,lat,long
2018-05-18 00:00:00+00:00,241.0,241.0,0.31,0.53,,47.59359,-54.27349
2018-05-18 00:10:00+00:00,313.0,320.0,1.4,1.93,,47.59359,-54.27349
2018-05-18 00:20:00+00:00,245.0,249.0,1.12,1.5,,47.59359,-54.27349
2018-05-18 00:30:00+00:00,272.0,271.0,2.85,3.35,,47.59359,-54.27349
2018-05-18 00:40:00+00:00,278.0,274.0,3.38,3.8,,47.59359,-54.27349
2018-05-18 00:50:00+00:00,288.0,289.0,4.11,4.43,,47.59359,-54.27349
2018-05-18 01:00:00+00:00,285.0,284.0,4.08,4.34,,47.59359,-54.27349
2018-05-18 01:10:00+00:00,297.0,306.0,4.83,5.76,,47.59359,-54.27349
2018-05-18 01:20:00+00:00,292.0,294.0,4.05,4.47,,47.59359,-54.27349
2018-05-18 01:30:00+00:00,296.0,300.0,3.74,4.55,,47.59359,-54.27349
2018-05-18 01:40:00+00:00,305.0,304.0,3.56,3.8,,47.59359,-54.27349
2018-05-18 01:50:00+00:00,306.0,302.0,4.22,4.96,,47.59359,-54.27349
2018-05-18 02:00:00+00:00,319.0,315.0,6.06,6.6,,47.59359,-54.27349
2018-05-18 02:10:00+00:00,340.0,352.0,8.93,10.28,,47.59359,-54.27349
2018-05-18 02:20:00+00:00,356.0,356.0,9.78,11.13,,47.59359,-54.27349
2018-05-18 02:30:00+00:00,2.0,11.0,9.3,10.94,,47.59359,-54.27349
2018-05-18 02:40:00+00:00,3.0,7.0,8.06,9.25,,47.59359,-54.27349
2018-05-18 02:50:00+00:00,1.0,357.0,8.34,9.64,,47.59359,-54.27349
2018-05-18 03:00:00+00:00,0.0,1.0,9.62,10.98,,47.59359,-54.27349
2018-05-18 03:10:00+00:00,3.0,5.0,9.63,10.57,,47.59359,-54.27349
2018-05-18 03:20:00+00:00,0.0,3.0,8.53,9.58,,47.59359,-54.27349
2018-05-18 03:30:00+00:00,1.0,4.0,7.61,8.88,,47.59359,-54.27349
2018-05-18 03:40:00+00:00,358.0,3.0,7.04,8.26,,47.59359,-54.27349
2018-05-18 03:50:00+00:00,4.0,10.0,8.19,9.43,,47.59359,-54.27349
2018-05-18 04:00:00+00:00,6.0,4.0,9.23,10.92,,47.59359,-54.27349
2018-05-18 04:10:00+00:00,9.0,12.0,7.72,8.67,,47.59359,-54.27349
2018-05-18 04:20:00+00:00,24.0,33.0,5.67,6.61,,47.59359,-54.27349
2018-05-18 04:30:00+00:00,14.0,24.0,7.19,8.68,,47.59359,-54.27349
2018-05-18 04:40:00+00:00,16.0,16.0,8.95,10.2,,47.59359,-54.27349
2018-05-18 04:50:00+00:00,28.0,25.0,6.82,7.7,,47.59359,-54.27349
2018-05-18 05:00:00+00:00,16.0,16.0,7.18,8.3,,47.59359,-54.27349
2018-05-18 05:10:00+00:00,14.0,13.0,7.53,8.73,,47.59359,-54.27349
2018-05-18 05:20:00+00:00,14.0,16.0,7.5,8.66,,47.59359,-54.27349
2018-05-18 05:30:00+00:00,5.0,5.0,7.81,8.55,,47.59359,-54.27349
2018-05-18 05:40:00+00:00,8.0,5.0,6.6,8.12,,47.59359,-54.27349
2018-05-18 05:50:00+00:00,0.0,3.0,5.3,5.73,,47.59359,-54.27349
2018-05-18 06:00:00+00:00,355.0,350.0,4.4,4.93,,47.59359,-54.27349
2018-05-18 06:10:00+00:00,359.0,356.0,4.72,5.32,,47.59359,-54.27349
2018-05-18 06:20:00+00:00,2.0,5.0,5.25,5.74,,47.59359,-54.27349
2018-05-18 06:30:00+00:00,6.0,10.0,5.53,6.23,,47.59359,-54.27349
2018-05-18 06:40:00+00:00,12.0,11.0,6.01,6.8,,47.59359,-54.27349
2018-05-18 06:50:00+00:00,15.0,17.0,5.66,6.2,,47.59359,-54.27349
2018-05-18 07:00:00+00:00,14.0,14.0,5.55,6.05,,47.59359,-54.27349
2018-05-18 07:10:00+00:00,15.0,15.0,5.75,6.41,,47.59359,-54.27349
2018-05-18 07:20:00+00:00,11.0,10.0,5.67,6.43,,47.59359,-54.27349
2018-05-18 07:30:00+00:00,13.0,13.0,4.85,5.41,,47.59359,-54.27349
2018-05-18 07:40:00+00:00,8.0,15.0,4.98,5.9,,47.59359,-54.27349
2018-05-18 07:50:00+00:00,8.0,8.0,5.07,5.45,,47.59359,-54.27349
2018-05-18 08:00:00+00:00,2.0,3.0,5.49,6.31,,47.59359,-54.27349
2018-05-18 08:10:00+00:00,352.0,353.0,4.45,4.84,,47.59359,-54.27349
2018-05-18 08:20:00+00:00,356.0,3.0,4.13,4.66,,47.59359,-54.27349
2018-05-18 08:30:00+00:00,351.0,353.0,3.87,4.32,,47.59359,-54.27349
2018-05-18 08:40:00+00:00,343.0,347.0,4.42,4.92,,47.59359,-54.27349
2018-05-18 08:50:00+00:00,334.0,338.0,4.31,4.64,,47.59359,-54.27349
2018-05-18 09:00:00+00:00,333.0,330.0,3.74,4.35,,47.59359,-54.27349
2018-05-18 09:10:00+00:00,329.0,331.0,4.71,5.18,,47.59359,-54.27349
2018-05-18 09:20:00+00:00,336.0,338.0,3.85,4.33,,47.59359,-54.27349
2018-05-18 09:30:00+00:00,338.0,343.0,4.25,4.89,,47.59359,-54.27349
2018-05-18 09:40:00+00:00,329.0,325.0,4.0,4.54,,47.59359,-54.27349
2018-05-18 09:50:00+00:00,323.0,326.0,3.74,4.2,,47.59359,-54.27349
2018-05-18 10:00:00+00:00,317.0,317.0,3.8,4.33,,47.59359,-54.27349
2018-05-18 10:10:00+00:00,305.0,304.0,3.71,4.26,,47.59359,-54.27349
2018-05-18 10:20:00+00:00,314.0,317.0,3.7,4.1,,47.59359,-54.27349
2018-05-18 10:30:00+00:00,303.0,303.0,3.47,4.05,,47.59359,-54.27349
2018-05-18 10:40:00+00:00,314.0,314.0,2.65,3.06,,47.59359,-54.27349
2018-05-18 10:50:00+00:00,310.0,312.0,2.85,3.38,,47.59359,-54.27349
2018-05-18 11:00:00+00:00,293.0,299.0,1.97,2.46,,47.59359,-54.27349
2018-05-18 11:10:00+00:00,270.0,272.0,1.88,2.08,,47.59359,-54.27349
2018-05-18 11:20:00+00:00,296.0,310.0,1.01,1.4,,47.59359,-54.27349
2018-05-18 11:30:00+00:00,286.0,290.0,1.96,2.38,,47.59359,-54.27349
2018-05-18 11:40:00+00:00,232.0,236.0,2.52,2.88,,47.59359,-54.27349
2018-05-18 11:50:00+00:00,226.0,225.0,1.2,1.43,,47.59359,-54.27349
2018-05-18 12:00:00+00:00,250.0,250.0,1.89,2.19,,47.59359,-54.27349
2018-05-18 12:10:00+00:00,36.0,46.0,1.44,2.08,,47.59359,-54.27349
2018-05-18 12:20:00+00:00,356.0,347.0,4.72,5.81,,47.59359,-54.27349
2018-05-18 12:30:00+00:00,331.0,338.0,5.1,5.69,,47.59359,-54.27349
2018-05-18 12:40:00+00:00,329.0,320.0,4.63,6.11,,47.59359,-54.27349
2018-05-18 12:50:00+00:00,327.0,321.0,4.54,5.96,,47.59359,-54.27349
2018-05-18 13:00:00+00:00,341.0,343.0,3.84,4.33,,47.59359,-54.27349
2018-05-18 13:10:00+00:00,340.0,338.0,3.71,4.39,,47.59359,-54.27349
2018-05-18 13:20:00+00:00,327.0,330.0,4.65,5.06,,47.59359,-54.27349
2018-05-18 13:30:00+00:00,255.0,254.0,2.36,3.03,,47.59359,-54.27349
2018-05-18 13:40:00+00:00,278.0,284.0,3.23,4.06,,47.59359,-54.27349
2018-05-18 13:50:00+00:00,266.0,264.0,3.81,4.2,,47.59359,-54.27349
2018-05-18 14:00:00+00:00,226.0,223.0,6.15,7.0,,47.59359,-54.27349
2018-05-18 14:10:00+00:00,222.0,219.0,5.9,6.66,,47.59359,-54.27349
2018-05-18 14:20:00+00:00,222.0,222.0,8.2,8.79,,47.59359,-54.27349
2018-05-18 14:30:00+00:00,222.0,220.0,8.21,10.41,,47.59359,-54.27349
2018-05-18 14:40:00+00:00,220.0,219.0,9.55,10.44,,47.59359,-54.27349
2018-05-18 14:50:00+00:00,217.0,218.0,8.93,9.6,,47.59359,-54.27349
2018-05-18 15:00:00+00:00,218.0,218.0,9.08,10.08,,47.59359,-54.27349
2018-05-18 15:10:00+00:00,221.0,220.0,9.59,10.78,,47.59359,-54.27349
2018-05-18 15:20:00+00:00,219.0,217.0,8.43,9.14,,47.59359,-54.27349
2018-05-18 15:30:00+00:00,222.0,223.0,8.41,9.44,,47.59359,-54.27349
2018-05-18 15:40:00+00:00,219.0,217.0,9.75,10.87,,47.59359,-54.27349
2018-05-18 15:50:00+00:00,219.0,224.0,7.69,8.47,,47.59359,-54.27349
2018-05-18 16:00:00+00:00,223.0,217.0,4.21,5.12,,47.59359,-54.27349
2018-05-18 16:10:00+00:00,228.0,228.0,6.98,8.31,,47.59359,-54.27349
2018-05-18 16:20:00+00:00,226.0,228.0,10.05,11.61,,47.59359,-54.27349
2018-05-18 16:30:00+00:00,224.0,222.0,7.33,8.34,,47.59359,-54.27349
2018-05-18 16:40:00+00:00,214.0,214.0,7.67,8.72,,47.59359,-54.27349
2018-05-18 16:50:00+00:00,219.0,221.0,6.39,8.06,,47.59359,-54.27349
2018-05-18 17:00:00+00:00,225.0,220.0,6.66,7.68,,47.59359,-54.27349
2018-05-18 17:10:00+00:00,231.0,224.0,5.4,7.22,,47.59359,-54.27349
2018-05-18 17:20:00+00:00,312.0,296.0,6.49,8.61,,47.59359,-54.27349
2018-05-18 17:30:00+00:00,284.0,287.0,7.28,8.46,,47.59359,-54.27349
2018-05-18 17:40:00+00:00,292.0,296.0,8.49,10.11,,47.59359,-54.27349
2018-05-18 17:50:00+00:00,291.0,288.0,9.06,9.98,,47.59359,-54.27349
2018-05-18 18:00:00+00:00,276.0,279.0,9.16,10.29,,47.59359,-54.27349
2018-05-18 18:10:00+00:00,292.0,290.0,7.86,9.68,,47.59359,-54.27349
2018-05-18 18:20:00+00:00,280.0,283.0,8.0,9.06,,47.59359,-54.27349
2018-05-18 18:30:00+00:00,274.0,275.0,8.81,10.48,,47.59359,-54.27349
2018-05-18 18:40:00+00:00,283.0,279.0,8.68,9.72,,47.59359,-54.27349
2018-05-18 18:50:00+00:00,286.0,290.0,10.77,12.94,,47.59359,-54.27349
2018-05-18 19:00:00+00:00,285.0,288.0,9.96,12.24,,47.59359,-54.27349
2018-05-18 19:10:00+00:00,281.0,274.0,9.76,11.08,,47.59359,-54.27349
2018-05-18 19:20:00+00:00,280.0,280.0,11.14,12.17,,47.59359,-54.27349
2018-05-18 19:30:00+00:00,280.0,279.0,9.75,11.82,,47.59359,-54.27349
2018-05-18 19:40:00+00:00,278.0,274.0,9.69,11.36,,47.59359,-54.27349
2018-05-18 19:50:00+00:00,292.0,292.0,8.25,10.4,,47.59359,-54.27349
2018-05-18 20:00:00+00:00,278.0,279.0,9.76,11.23,,47.59359,-54.27349
2018-05-18 20:10:00+00:00,282.0,284.0,10.78,11.97,,47.59359,-54.27349
2018-05-18 20:20:00+00:00,279.0,281.0,10.51,11.79,,47.59359,-54.27349
2018-05-18 20:30:00+00:00,285.0,289.0,10.33,11.42,,47.59359,-54.27349
2018-05-18 20:40:00+00:00,279.0,282.0,10.36,11.45,,47.59359,-54.27349
2018-05-18 20:50:00+00:00,281.0,286.0,10.68,11.72,,47.59359,-54.27349
2018-05-18 21:00:00+00:00,279.0,282.0,8.94,10.45,,47.59359,-54.27349
2018-05-18 21:10:00+00:00,276.0,276.0,9.89,10.93,,47.59359,-54.27349
2018-05-18 21:20:00+00:00,274.0,277.0,8.46,9.53,,47.59359,-54.27349
2018-05-18 21:30:00+00:00,278.0,281.0,9.33,10.62,,47.59359,-54.27349
2018-05-18 21:40:00+00:00,281.0,287.0,9.43,10.78,,47.59359,-54.27349
2018-05-18 21:50:00+00:00,273.0,278.0,8.03,9.07,,47.59359,-54.27349
2018-05-18 22:00:00+00:00,278.0,279.0,7.32,8.25,,47.59359,-54.27349
2018-05-18 22:10:00+00:00,270.0,273.0,8.73,10.11,,47.59359,-54.27349
2018-05-18 22:20:00+00:00,279.0,276.0,7.45,8.21,,47.59359,-54.27349
2018-05-18 22:30:00+00:00,286.0,286.0,7.93,9.85,,47.59359,-54.27349
2018-05-18 22:40:00+00:00,284.0,288.0,8.13,9.43,,47.59359,-54.27349
2018-05-18 22:50:00+00:00,288.0,295.0,10.53,11.78,,47.59359,-54.27349
2018-05-18 23:00:00+00:00,288.0,292.0,10.21,11.77,,47.59359,-54.27349
2018-05-18 23:10:00+00:00,286.0,280.0,8.66,9.86,,47.59359,-54.27349
2018-05-18 23:20:00+00:00,291.0,289.0,9.32,10.83,,47.59359,-54.27349
2018-05-18 23:30:00+00:00,294.0,296.0,8.49,9.32,,47.59359,-54.27349
2018-05-18 23:40:00+00:00,293.0,294.0,8.3,9.47,,47.59359,-54.27349
2018-05-18 23:50:00+00:00,290.0,296.0,7.44,8.5,,47.59359,-54.27349
